Time,TemperatureF,DewpointF,PressureIn,WindDirection,WindDirectionDegrees,WindSpeedMPH,WindSpeedGustMPH,Humidity,HourlyPrecipIn,Conditions,Clouds,dailyrainin,SoftwareType,DateUTC
2013-05-20 00:14:00,63.0,58.4,30.12,North,0,0.0,0.0,85,0.00,,OVC013,0.00,VWS V14.00,2013-05-20 04:14:00,
2013-05-20 00:29:00,63.0,58.4,30.12,North,0,0.0,0.0,85,0.00,,OVC013,0.00,VWS V14.00,2013-05-20 04:29:00,
2013-05-20 00:44:00,63.0,58.4,30.12,North,0,0.0,0.0,85,0.00,,OVC013,0.00,VWS V14.00,2013-05-20 04:44:00,
2013-05-20 00:59:00,63.0,58.4,30.12,North,0,0.0,0.0,85,0.00,,OVC013,0.00,VWS V14.00,2013-05-20 04:59:00,
2013-05-20 01:14:00,63.0,58.4,30.09,North,0,0.0,0.0,85,0.00,,OVC013,0.00,VWS V14.00,2013-05-20 05:14:00,
2013-05-20 01:29:00,63.0,58.4,30.09,North,0,0.0,0.0,85,0.00,,OVC013,0.00,VWS V14.00,2013-05-20 05:29:00,
2013-05-20 01:44:00,62.8,58.2,30.09,North,0,0.0,0.0,85,0.00,,OVC013,0.00,VWS V14.00,2013-05-20 05:44:00,
2013-05-20 01:59:00,62.8,58.2,30.09,North,0,0.0,0.0,85,0.00,,OVC013,0.00,VWS V14.00,2013-05-20 05:59:00,
2013-05-20 02:14:00,62.8,58.2,30.09,North,0,0.0,0.0,85,0.00,,OVC013,0.00,VWS V14.00,2013-05-20 06:14:00,
2013-05-20 02:29:00,62.8,58.2,30.09,North,0,0.0,0.0,85,0.00,,OVC013,0.00,VWS V14.00,2013-05-20 06:29:00,
2013-05-20 02:44:00,62.8,58.2,30.06,North,0,0.0,0.0,85,0.00,,OVC013,0.00,VWS V14.00,2013-05-20 06:44:00,
2013-05-20 02:59:00,62.8,58.2,30.06,North,0,0.0,0.0,85,0.00,,OVC013,0.00,VWS V14.00,2013-05-20 06:59:00,
2013-05-20 03:14:00,62.6,58.0,30.06,North,0,0.0,0.0,85,0.00,,OVC011,0.00,VWS V14.00,2013-05-20 07:14:00,
2013-05-20 03:29:00,62.6,58.0,30.06,North,0,0.0,0.0,85,0.00,,OVC011,0.00,VWS V14.00,2013-05-20 07:29:00,
2013-05-20 03:45:00,62.8,58.5,30.06,North,0,0.0,0.0,86,0.00,,OVC011,0.00,VWS V14.00,2013-05-20 07:45:00,
2013-05-20 03:59:00,62.8,58.5,30.06,North,0,0.0,0.0,86,0.00,,OVC011,0.00,VWS V14.00,2013-05-20 07:59:00,
2013-05-20 04:14:00,62.8,58.5,30.06,North,0,0.0,0.0,86,0.00,,OVC010,0.00,VWS V14.00,2013-05-20 08:14:00,
2013-05-20 04:30:00,62.8,58.5,30.06,North,0,0.0,0.0,86,0.00,,OVC010,0.00,VWS V14.00,2013-05-20 08:30:00,
2013-05-20 04:44:00,62.6,58.4,30.06,North,0,0.0,0.0,86,0.00,,OVC010,0.00,VWS V14.00,2013-05-20 08:44:00,
2013-05-20 04:59:00,62.6,58.4,30.06,North,0,0.0,0.0,86,0.00,,OVC010,0.00,VWS V14.00,2013-05-20 08:59:00,
2013-05-20 05:14:00,62.6,58.4,30.06,North,0,0.0,0.0,86,0.00,,OVC010,0.00,VWS V14.00,2013-05-20 09:14:00,
2013-05-20 05:29:00,62.6,58.4,30.06,North,0,0.0,0.0,86,0.00,,OVC010,0.00,VWS V14.00,2013-05-20 09:29:00,
2013-05-20 05:44:00,62.4,58.5,30.06,North,0,0.0,0.0,87,0.00,,OVC010,0.00,VWS V14.00,2013-05-20 09:44:00,
2013-05-20 05:59:00,62.2,58.3,30.09,North,0,0.0,0.0,87,0.00,,OVC010,0.00,VWS V14.00,2013-05-20 09:59:00,
2013-05-20 06:14:00,62.2,58.3,30.09,North,0,0.0,0.0,87,0.00,,OVC010,0.00,VWS V14.00,2013-05-20 10:14:00,
2013-05-20 06:29:00,62.2,58.7,30.09,North,0,0.0,0.0,88,0.00,,OVC010,0.00,VWS V14.00,2013-05-20 10:29:00,
2013-05-20 06:44:00,62.4,58.8,30.09,North,0,0.0,0.0,88,0.00,,OVC010,0.00,VWS V14.00,2013-05-20 10:44:00,
2013-05-20 06:59:00,62.6,59.0,30.09,North,0,0.0,0.0,88,0.00,,OVC010,0.00,VWS V14.00,2013-05-20 10:59:00,
2013-05-20 07:14:00,62.8,58.9,30.09,North,0,0.0,0.0,87,0.00,,,0.00,VWS V14.00,2013-05-20 11:14:00,
2013-05-20 07:29:00,63.0,59.0,30.09,North,0,0.0,0.0,87,0.00,,,0.00,VWS V14.00,2013-05-20 11:29:00,
2013-05-20 07:44:00,63.1,59.5,30.09,North,0,0.0,0.0,88,0.00,,,0.00,VWS V14.00,2013-05-20 11:44:00,
2013-05-20 07:59:00,63.9,60.2,30.09,North,0,0.0,0.0,88,0.00,,,0.00,VWS V14.00,2013-05-20 11:59:00,
2013-05-20 08:14:00,64.4,60.5,30.09,North,0,0.0,0.0,87,0.00,,,0.00,VWS V14.00,2013-05-20 12:14:00,
2013-05-20 08:29:00,65.5,61.8,30.09,North,0,0.0,0.0,88,0.00,,,0.00,VWS V14.00,2013-05-20 12:29:00,
2013-05-20 08:45:00,65.5,61.2,30.09,North,0,0.0,0.0,86,0.00,,,0.00,VWS V14.00,2013-05-20 12:45:00,
2013-05-20 09:00:00,67.1,62.8,30.09,North,0,0.0,0.0,86,0.00,,,0.00,VWS V14.00,2013-05-20 13:00:00,
2013-05-20 09:14:00,67.6,63.3,30.09,North,0,0.0,0.0,86,0.00,,,0.00,VWS V14.00,2013-05-20 13:14:00,
2013-05-20 09:29:00,67.6,62.0,30.09,North,0,0.0,0.0,82,0.00,,,0.00,VWS V14.00,2013-05-20 13:29:00,
2013-05-20 09:45:00,68.9,63.2,30.09,North,0,0.0,0.0,82,0.00,,,0.00,VWS V14.00,2013-05-20 13:45:00,
2013-05-20 10:00:00,68.9,61.4,30.09,North,0,0.0,0.0,77,0.00,,,0.00,VWS V14.00,2013-05-20 14:00:00,
2013-05-20 10:14:00,68.5,58.4,30.09,North,0,0.0,0.0,70,0.00,,,0.00,VWS V14.00,2013-05-20 14:14:00,
2013-05-20 10:30:00,70.9,59.4,30.06,North,0,0.0,0.0,67,0.00,,,0.00,VWS V14.00,2013-05-20 14:30:00,
2013-05-20 10:45:00,71.8,55.3,30.06,North,0,0.0,0.0,56,0.00,,,0.00,VWS V14.00,2013-05-20 14:45:00,
2013-05-20 11:00:00,72.3,54.2,30.06,North,0,0.0,0.0,53,0.00,,,0.00,VWS V14.00,2013-05-20 15:00:00,
2013-05-20 11:15:00,72.5,52.3,30.06,North,0,0.0,0.0,49,0.00,,,0.00,VWS V14.00,2013-05-20 15:15:00,
2013-05-20 11:30:00,74.5,47.2,30.06,North,0,0.0,0.0,38,0.00,,,0.00,VWS V14.00,2013-05-20 15:30:00,
2013-05-20 11:45:00,75.2,44.9,30.06,North,0,0.0,0.0,34,0.00,,,0.00,VWS V14.00,2013-05-20 15:45:00,
2013-05-20 12:00:00,75.7,43.8,30.06,North,0,0.0,0.0,32,0.00,,,0.00,VWS V14.00,2013-05-20 16:00:00,
2013-05-20 12:15:00,74.5,45.8,30.06,North,0,0.0,0.0,36,0.00,,,0.00,VWS V14.00,2013-05-20 16:15:00,
2013-05-20 12:30:00,74.5,45.1,30.06,North,0,0.0,0.0,35,0.00,,,0.00,VWS V14.00,2013-05-20 16:30:00,
2013-05-20 12:45:00,76.8,43.9,30.06,North,0,0.0,0.0,31,0.00,,,0.00,VWS V14.00,2013-05-20 16:45:00,
2013-05-20 13:00:00,76.5,43.6,30.03,North,0,0.0,0.0,31,0.00,,OVC017,0.00,VWS V14.00,2013-05-20 17:00:00,
2013-05-20 13:15:00,76.8,43.9,30.03,North,0,0.0,0.0,31,0.00,,OVC017,0.00,VWS V14.00,2013-05-20 17:15:00,
2013-05-20 13:30:00,79.5,42.6,30.03,North,0,0.0,0.0,27,0.00,,OVC017,0.00,VWS V14.00,2013-05-20 17:30:00,
2013-05-20 13:45:00,78.8,37.9,30.03,North,0,0.0,0.0,23,0.00,,OVC017,0.00,VWS V14.00,2013-05-20 17:45:00,
2013-05-20 14:00:00,78.3,40.6,30.03,North,0,0.0,0.0,26,0.00,,OVC019,0.00,VWS V14.00,2013-05-20 18:00:00,
2013-05-20 14:15:00,80.4,38.1,30.03,North,0,0.0,0.0,22,0.00,,OVC019,0.00,VWS V14.00,2013-05-20 18:15:00,
2013-05-20 14:30:00,82.6,38.7,30.03,North,0,0.0,0.0,21,0.00,,OVC019,0.00,VWS V14.00,2013-05-20 18:30:00,
2013-05-20 14:44:00,80.8,37.2,30.00,North,0,0.0,0.0,21,0.00,,OVC019,0.00,VWS V14.00,2013-05-20 18:44:00,
2013-05-20 14:59:00,81.7,39.2,30.00,North,0,0.0,0.0,22,0.00,,OVC023,0.00,VWS V14.00,2013-05-20 18:59:00,
2013-05-20 15:14:00,80.8,37.2,30.00,North,0,0.0,0.0,21,0.00,,OVC023,0.00,VWS V14.00,2013-05-20 19:14:00,
2013-05-20 15:29:00,80.6,38.3,30.00,North,0,0.0,0.0,22,0.00,,OVC023,0.00,VWS V14.00,2013-05-20 19:29:00,
2013-05-20 15:44:00,79.9,37.7,30.00,North,0,0.0,0.0,22,0.00,,OVC023,0.00,VWS V14.00,2013-05-20 19:44:00,
2013-05-20 15:59:00,81.7,38.0,30.00,North,0,0.0,0.0,21,0.00,,SCT025,0.00,VWS V14.00,2013-05-20 19:59:00,
2013-05-20 16:14:00,82.0,38.3,30.00,North,0,0.0,0.0,21,0.00,,SCT025,0.00,VWS V14.00,2013-05-20 20:14:00,
2013-05-20 16:29:00,85.1,36.9,30.00,North,0,0.0,0.0,18,0.00,,SCT025,0.00,VWS V14.00,2013-05-20 20:29:00,
2013-05-20 16:44:00,86.9,38.3,29.97,North,0,0.0,0.0,18,0.00,,SCT025,0.00,VWS V14.00,2013-05-20 20:44:00,
2013-05-20 16:59:00,84.7,36.6,29.97,North,0,0.0,0.0,18,0.00,,CLR,0.00,VWS V14.00,2013-05-20 20:59:00,
2013-05-20 17:14:00,86.5,38.0,29.97,North,0,0.0,0.0,18,0.00,,CLR,0.00,VWS V14.00,2013-05-20 21:14:00,
2013-05-20 17:29:00,84.2,36.2,29.97,North,0,0.0,0.0,18,0.00,,CLR,0.00,VWS V14.00,2013-05-20 21:29:00,
2013-05-20 17:44:00,82.9,36.5,29.97,North,0,0.0,0.0,19,0.00,,CLR,0.00,VWS V14.00,2013-05-20 21:44:00,
2013-05-20 17:59:00,82.9,36.5,29.97,North,0,0.0,0.0,19,0.00,,CLR,0.00,VWS V14.00,2013-05-20 21:59:00,
2013-05-20 18:14:00,81.9,36.9,29.97,North,0,0.0,0.0,20,0.00,,CLR,0.00,VWS V14.00,2013-05-20 22:14:00,
2013-05-20 18:29:00,83.5,36.9,29.97,North,0,0.0,0.0,19,0.00,,CLR,0.00,VWS V14.00,2013-05-20 22:29:00,
2013-05-20 18:44:00,82.4,36.0,29.94,North,0,0.0,0.0,19,0.00,,CLR,0.00,VWS V14.00,2013-05-20 22:44:00,
2013-05-20 18:59:00,81.3,36.5,29.94,North,0,0.0,0.0,20,0.00,,CLR,0.00,VWS V14.00,2013-05-20 22:59:00,
2013-05-20 19:14:00,80.4,37.0,29.97,North,0,0.0,0.0,21,0.00,,CLR,0.00,VWS V14.00,2013-05-20 23:14:00,
2013-05-20 19:29:00,80.1,37.8,29.94,North,0,0.0,0.0,22,0.00,,CLR,0.00,VWS V14.00,2013-05-20 23:29:00,
2013-05-20 19:44:00,78.8,37.9,29.97,North,0,0.0,0.0,23,0.00,,CLR,0.00,VWS V14.00,2013-05-20 23:44:00,
2013-05-20 19:59:00,78.1,40.4,29.97,North,0,0.0,0.0,26,0.00,,CLR,0.00,VWS V14.00,2013-05-20 23:59:00,
2013-05-20 20:14:00,76.8,43.1,29.97,North,0,0.0,0.0,30,0.00,,CLR,0.00,VWS V14.00,2013-05-21 00:14:00,
2013-05-20 20:29:00,75.9,43.1,29.97,North,0,0.0,0.0,31,0.00,,CLR,0.00,VWS V14.00,2013-05-21 00:29:00,
2013-05-20 20:44:00,75.6,42.8,29.97,North,0,0.0,0.0,31,0.00,,CLR,0.00,VWS V14.00,2013-05-21 00:44:00,
2013-05-20 20:59:00,75.2,43.3,29.97,North,0,0.0,0.0,32,0.00,,CLR,0.00,VWS V14.00,2013-05-21 00:59:00,
2013-05-20 21:14:00,74.7,44.5,29.97,North,0,0.0,0.0,34,0.00,,CLR,0.00,VWS V14.00,2013-05-21 01:14:00,
2013-05-20 21:29:00,74.8,44.6,29.97,North,0,0.0,0.0,34,0.00,,CLR,0.00,VWS V14.00,2013-05-21 01:29:00,
2013-05-20 21:44:00,74.5,44.3,29.97,North,0,0.0,0.0,34,0.00,,CLR,0.00,VWS V14.00,2013-05-21 01:44:00,
2013-05-20 21:59:00,73.8,45.9,29.97,North,0,0.0,0.0,37,0.00,,CLR,0.00,VWS V14.00,2013-05-21 01:59:00,
2013-05-20 22:14:00,74.7,47.4,29.97,North,0,0.0,0.0,38,0.00,,CLR,0.00,VWS V14.00,2013-05-21 02:14:00,
2013-05-20 22:30:00,74.3,47.1,29.97,North,0,0.0,0.0,38,0.00,,CLR,0.00,VWS V14.00,2013-05-21 02:30:00,
2013-05-20 22:45:00,74.3,46.4,29.97,North,0,0.0,0.0,37,0.00,,CLR,0.00,VWS V14.00,2013-05-21 02:45:00,
2013-05-20 23:00:00,73.4,45.6,29.97,North,0,0.0,0.0,37,0.00,,CLR,0.00,VWS V14.00,2013-05-21 03:00:00,
2013-05-20 23:15:00,72.0,47.0,29.97,North,0,0.0,0.0,41,0.00,,CLR,0.00,VWS V14.00,2013-05-21 03:15:00,
2013-05-20 23:30:00,71.8,52.2,29.97,North,0,0.0,0.0,50,0.00,,CLR,0.00,VWS V14.00,2013-05-21 03:30:00,
2013-05-20 23:45:00,70.9,51.9,29.97,North,0,0.0,0.0,51,0.00,,CLR,0.00,VWS V14.00,2013-05-21 03:45:00,